Seattle Boeing, WA
on Monday, February 25, 2013

Monday
Previous Day Next Day
Daily Summary
 ActualAverage (KSEA)Record (KSEA)
Temperature
Mean Temperature °F 44°F  
Max Temperature 53°F 51°F 64°F (1992)
Min Temperature 39°F 37°F 20°F (2011)
Degree Days
Heating Degree Days 19 21  
Month to date heating degree days 543  
Since 1 July heating degree days 3192  
Cooling Degree Days 0 0  
Month to date cooling degree days 0  
Year to date cooling degree days 0  
Moisture
Dew Point 34°F   
Average Humidity 67    
Maximum Humidity 79    
Minimum Humidity 34    
Precipitation
Precipitation 0.14 in 0.13 in 0.98 in (1948)
Month to date precipitation 3.13  
Year to date precipitation 8.70  
Snow
Snow 0.00 in in T in (2009)
Month to date snowfall  
Since 1 July snowfall  
Snow Depth in   
Wind
Wind Speed 13 mph   
Max Wind Speed 20 mph   
Max Gust Speed 31 mph   
Visibility 10 miles   
Events Rain   

Key: T is trace of precipitation, MM is missing value
Source: NWS Daily Summary
Time(PST)TemperatureDew PointHumidity Pressure Visibility Wind DirectionWind SpeedGust SpeedPrecipitationEvents Conditions
12:13 AM 44.6°F 35.6°F 71% 29.95 in 7.0 miles South 17.3 mph 26.5 mph 0.02 in Rain Light Rain
12:53 AM 44.1°F 36.0°F 73% 29.94 in 9.0 miles South 13.8 mph 19.6 mph 0.06 in Rain Light Rain
1:53 AM 44.1°F 37.0°F 76% 29.91 in 8.0 miles South 9.2 mph - 0.06 in Rain Light Rain
2:53 AM 44.1°F 37.9°F 79% 29.90 in 10.0 miles South 11.5 mph 21.9 mph 0.02 in   Overcast
3:53 AM 44.1°F 37.9°F 79% 29.91 in 10.0 miles South 12.7 mph 20.7 mph N/A   Mostly Cloudy
4:53 AM 44.1°F 37.0°F 76% 29.94 in 10.0 miles South 16.1 mph 25.3 mph N/A   Overcast
5:53 AM 44.1°F 37.0°F 76% 29.94 in 10.0 miles South 12.7 mph 29.9 mph N/A   Mostly Cloudy
6:53 AM 44.1°F 36.0°F 73% 29.96 in 10.0 miles SSW 15.0 mph 24.2 mph N/A   Overcast
7:53 AM 43.0°F 35.1°F 74% 29.97 in 10.0 miles SSW 19.6 mph 31.1 mph N/A   Mostly Cloudy
8:34 AM 42.8°F 35.6°F 76% 29.98 in 10.0 miles SSW 16.1 mph 27.6 mph N/A   Scattered Clouds
8:53 AM 44.1°F 36.0°F 73% 29.99 in 10.0 miles SW 11.5 mph 24.2 mph N/A   Mostly Cloudy
9:18 AM 44.6°F 35.6°F 71% 30.00 in 10.0 miles SSW 10.4 mph 24.2 mph N/A   Mostly Cloudy
9:53 AM 44.6°F 35.6°F 71% 30.01 in 10.0 miles SSW 13.8 mph 28.8 mph N/A   Mostly Cloudy
10:53 AM 46.0°F 34.0°F 63% 30.03 in 10.0 miles SSW 16.1 mph 28.8 mph N/A   Clear
11:53 AM 48.0°F 33.1°F 56% 30.06 in 10.0 miles SSW 12.7 mph 21.9 mph N/A   Mostly Cloudy
12:53 PM 52.0°F 33.1°F 49% 30.07 in 10.0 miles SSW 15.0 mph 28.8 mph N/A   Mostly Cloudy
1:53 PM 52.0°F 30.9°F 45% 30.09 in 10.0 miles SW 16.1 mph 27.6 mph N/A   Scattered Clouds
2:53 PM 53.1°F 28.0°F 38% 30.10 in 10.0 miles SW 12.7 mph 20.7 mph N/A   Scattered Clouds
3:53 PM 52.0°F 24.1°F 34% 30.13 in 10.0 miles WSW 12.7 mph 20.7 mph N/A   Scattered Clouds
4:53 PM 48.0°F 30.9°F 52% 30.16 in 10.0 miles SW 10.4 mph 17.3 mph N/A   Scattered Clouds
5:53 PM 45.0°F 32.0°F 60% 30.18 in 10.0 miles SSE 8.1 mph - N/A   Scattered Clouds
6:53 PM 44.6°F 32.0°F 61% 30.21 in 10.0 miles SE 6.9 mph - N/A   Partly Cloudy
7:53 PM 41.0°F 32.0°F 70% 30.24 in 10.0 miles SSE 6.9 mph - N/A   Partly Cloudy
8:53 PM 41.0°F 32.0°F 70% 30.27 in 10.0 miles SSE 8.1 mph - N/A   Clear
9:53 PM 39.9°F 33.1°F 77% 30.29 in 10.0 miles SE 10.4 mph - N/A   Partly Cloudy
10:53 PM 39.0°F 32.0°F 76% 30.30 in 10.0 miles SE 11.5 mph - N/A   Clear
11:53 PM 39.9°F 33.1°F 77% 30.32 in 10.0 miles SE 9.2 mph - N/A   Mostly Cloudy
Moon Phase
Feb. 25 Feb. 25 Mar. 04 Mar. 11 Mar. 19
Sunrise:06:56 AM (PST) Moon Rise:06:12 PM (PST)2/25
Sunset:05:48 PM (PST) Moon Set:06:26 AM (PST)2/25

Copyright © 2014 The Weather Underground, Inc.